Regional Weather Roundup
Issued by NWS

Home | Current Version | Previous Version | Text Only | Print | Product List | Glossary Off
Versions: 1 2 3 4 5 6 7 8 9 10 11 12 13 14 15 16 17 18 19 20 21 22 23 24 25 26 27 28 29 30 31 32 33 34 35 36 37 38 39 40 41 42 43 44 45 46 47 48 49 50

000
ASUS43 KFSD 251010
RWRSD

WEATHER ROUNDUP FOR SOUTH DAKOTA
NATIONAL WEATHER SERVICE SIOUX FALLS SD
500 AM CDT MON JUL 25 2016

NOTE: "FAIR" INDICATES FEW OR NO CLOUDS BELOW 12,000 FEET WITH NO
SIGNIFICANT WEATHER AND/OR OBSTRUCTIONS TO VISIBILITY.


SDZ001>005-009-010-012>017-251100-
NORTHWEST AND NORTH CENTRAL SOUTH DAKOTA

CITY           SKY/WX    TMP DP  RH WIND       PRES   REMARKS
BUFFALO          N/A     64  51  62 SE8       29.97F
FAITH            N/A     63  50  62 S16       30.03F
MOBRIDGE       CLEAR     67  58  72 SE8       30.02S
$$

SDZ012>016-024>037-041>051-057-063-072>074-251100-
SOUTHWEST AND SOUTH CENTRAL SOUTH DAKOTA

CITY           SKY/WX    TMP DP  RH WIND       PRES   REMARKS
RAPID CTY ARPT CLEAR     68  55  63 S10       30.08F
PIERRE         CLEAR     68  55  63 SW3       30.04S
CUSTER         CLEAR     56  49  77 W3        30.23F
ELLSWORTH AFB  CLEAR     69  56  61 S8        30.06F
PHILIP         CLEAR     62  54  74 E5        30.06S
PINE RIDGE     CLEAR     63  58  83 SW6       30.14S
WINNER         FAIR      66  53  63 S7        30.09S
$$

SDZ004>011-016>023-039-040-251100-
NORTHEAST SOUTH DAKOTA

CITY           SKY/WX    TMP DP  RH WIND       PRES   REMARKS
ABERDEEN       CLEAR     57  54  89 CALM      30.04S
WATERTOWN      CLEAR     59  57  93 S3        30.07S
BROOKINGS      CLEAR     62  59  90 S3        30.07F
SISSETON         N/A     57  56  96 CALM      30.03S
$$

SDZ017-020-022-023-036>040-048>070-251100-
SOUTHEAST SOUTH DAKOTA

CITY           SKY/WX    TMP DP  RH WIND       PRES   REMARKS
SIOUX FALLS    CLEAR     60  57  89 CALM      30.07S
HURON          CLEAR     61  58  90 SE3       30.05S
CHAMBERLAIN    CLEAR     62  60  94 CALM      30.07S
MITCHELL       CLEAR     64  60  87 CALM      30.06F
YANKTON        CLEAR     63  57  82 CALM      30.07R
$$

ABBREVIATIONS USED IN REMARKS
   TC - TEMPERATURE IN CELSIUS
  WCI - WIND CHILL INDEX
   HX - HEAT INDEX
  VSB - VISIBILITY





USA.gov is the U.S. government's official web portal to all federal, state and local government web resources and services.